Flag for Venezuela Weather past 2 weeks in Caracas, Venezuela

Now
81 °F

Passing clouds.


Feels Like: 86 °F
Forecast: N/A
Wind: 6 mph from Northeast

Location: Caracas / Maiquetia Aerop. Intl. Simon Bolivar

Current Time: May 24, 2015 at 6:52:56 PM

Latest Report: May 24, 2015 at 6:30 PM


Visibility: N/A

Pressure: 29.89 "Hg

Humidity: 84%

Dew point: 75 °F

Location of CaracasLocation

Historic Weather in Caracas — Graph

°F

Caracas temperature yesterday

Maximum temperature yesterday: 88 °F (at 10:30 AM)
Minimum temperature yesterday: 77 °F (at 12:30 AM)
Average temperature yesterday: 82 °F

Past Weeks' High & Low Weather Summary

 TemperatureHumidityPressure
High91 °F (May 19, 12:30 PM)94% (May 15, 8:30 PM)29.98 "Hg (May 15, 8:30 PM)
Low75 °F (May 17, 6:30 PM)48% (May 21, 5:30 PM)29.77 "Hg (May 20, 5:30 PM)
Average81 °F79%29.90 "Hg
* Reported May 9 5:30 PM — May 24 5:30 PM, Caracas, Weather by CustomWeather, © 2015

Note: Actual official high and low records may vary slightly from our data, if they occured in-between our weather recording intervals... More about our weather records

Advertising

Caracas weather history for previous 24 hours

 ConditionsComfort  
Time TempWeatherWind HumidityBarometerVisibility
5:30 PM
Sun, May 24
82 °FPartly sunny.6 mph84%29.92 "HgN/A
4:30 PM82 °FPartly sunny.5 mph84%29.92 "HgN/A
3:30 PM86 °FScattered clouds.6 mph70%29.86 "HgN/A
2:30 PM88 °FScattered clouds.8 mph70%29.89 "HgN/A
1:30 PM86 °FScattered clouds.7 mph75%29.89 "HgN/A
12:30 PM88 °FScattered clouds.6 mph70%29.92 "HgN/A
11:30 AM86 °FPassing clouds.6 mph75%29.92 "HgN/A
10:30 AM86 °FScattered clouds.7 mph75%29.92 "HgN/A
9:30 AM86 °FScattered clouds.7 mph75%29.92 "HgN/A
8:30 AM86 °FScattered clouds.6 mph66%29.92 "HgN/A
7:30 AM84 °FScattered clouds.6 mph70%29.92 "HgN/A
6:30 AM77 °FScattered clouds.1 mph89%29.95 "HgN/A
5:30 AM77 °FPassing clouds.No wind89%29.95 "HgN/A
4:30 AM77 °FPassing clouds.No wind89%29.92 "HgN/A
3:30 AM77 °FPassing clouds.No wind89%29.92 "HgN/A
2:30 AM79 °FPassing clouds.1 mph89%29.92 "HgN/A
1:30 AM79 °FPassing clouds.1 mph89%29.92 "HgN/A
12:30 AM79 °FPassing clouds.3 mph89%29.95 "HgN/A
11:30 PM
Sat, May 23
81 °FPassing clouds.3 mph84%29.95 "HgN/A
10:30 PM81 °FPassing clouds.5 mph84%29.95 "HgN/A
9:30 PM81 °FPassing clouds.7 mph84%29.95 "HgN/A
8:30 PM81 °FPassing clouds.5 mph84%29.95 "HgN/A
7:30 PM81 °FPassing clouds.6 mph84%29.89 "HgN/A
6:30 PM82 °FPassing clouds.2 mph84%29.89 "HgN/A
Weather by CustomWeather, © 2015

See weather overviewHow to use our weather pages